Location: Cogollal
(10.0582°N, 67.8466°W)
Time: 05:47:17
(UTC+00:00)

Daily predictions for brighter satellites

Satellite Brightness Start Highest point End
(mag) Time Altitude Azimuth Time Altitude Azimuth Time Altitude Azimuth
YAOGAN 1 4.4 00:10:46 10° SSW 00:14:30 30° W 00:18:15 10° NW
SJ-6B 3.1 00:21:15 63° NW 00:21:15 63° NW 00:24:39 10° NNW
PAYLOAD B 4.1 00:26:03 51° S 00:27:31 88° WSW 00:33:02 10° NNW
Longmarch 3A Rocket 3.3 00:23:34 10° NW 00:27:03 28° NNW 00:27:03 28° NNW
Ariane H10 4.2 00:25:35 10° W 00:32:28 38° SW 00:32:28 38° SW
ATLAS 5 CENTAUR R/B 4.5 00:36:12 10° WNW 00:36:38 10° WNW 00:37:03 10° WNW
Delta 7925 Rocket 4.2 00:33:26 10° NW 00:39:09 56° NNE 00:39:14 56° NNE
CZ-4 R/B 3.0 00:41:44 33° WNW 00:41:44 33° WNW 00:44:18 10° NNW
DELTA 4 R/B 3.3 00:35:50 10° WSW 00:44:29 88° NNW 00:45:41 69° ENE
VEP-3 4.3 01:20:02 10° WNW 01:40:24 41° N 01:40:44 41° N
ATLAS 5 CENTAUR R/B 4.0 06:06:51 10° W 06:52:03 42° NE 06:56:02 10° ENE
CZ-3 R/B 4.0 07:32:28 58° WSW 07:40:36 83° NNW 07:52:24 10° ENE
ARIANE 5 R/B 3.6 07:55:59 42° SE 07:55:59 42° SE 08:13:00 10° E
MAQSAT/ARIANE V 4.4 08:00:19 35° SSE 08:00:19 35° SSE 08:18:22 10° ESE
ARIANE 5 R/B 3.9 08:05:32 35° SE 08:05:32 35° SE 08:13:55 10° ESE
ATLAS 2AS CENTAUR R/B 4.2 08:19:52 24° NNW 08:19:52 24° NNW 08:23:36 10° N
Cosmos 1943 Rocket 4.4 08:12:59 10° NNE 08:17:24 23° ENE 08:21:47 10° ESE
H-2A R/B 3.0 08:16:50 10° NNE 08:21:41 43° ESE 08:24:24 24° SSE
Cosmos 1867 3.8 08:26:28 10° NNW 08:31:52 67° ENE 08:37:12 10° SSE
Cosmos 1707 4.3 08:34:23 28° ESE 08:35:13 32° E 08:38:29 10° NNE
Cosmos 2266 Rocket 3.8 08:34:27 38° S 08:37:01 85° W 08:43:08 10° N
Cosmos 1655 Rocket 4.4 08:31:00 10° S 08:37:07 61° E 08:43:12 10° NNE
Cosmos 468 4.4 08:37:08 67° SSW 08:37:52 90° ESE 08:43:09 10° NNE
Cosmos 1943 3.6 08:35:20 27° S 08:38:26 61° ESE 08:44:00 10° NNE
Cosmos 1048 Rocket 4.3 08:39:52 51° NW 08:39:52 51° NW 08:44:15 10° N
CRYOSAT 2 4.3 08:36:47 10° N 08:41:39 87° E 08:43:10 45° S
ARIANE 5 R/B 3.7 08:33:05 35° W 08:41:43 74° S 08:47:33 10° ESE
Atlas Centaur 2 1.5 08:41:59 87° SE 08:41:59 87° SE 08:47:12 10° ESE
SL-08 ROCKET BODY 4.2 08:39:54 24° S 08:43:32 88° W 08:49:25 10° N
Ariane H10-3 4.2 08:51:47 19° S 08:51:47 19° S 08:53:51 10° SSE
SL-24 R/B - RUBIN 2 4.3 08:50:01 26° S 08:52:55 68° ESE 08:58:39 10° NNE
Cosmos 1633 Rocket 2.8 08:48:52 10° N 08:53:11 78° W 08:57:32 10° S
Cosmos 1603 4.2 08:54:48 10° S 09:00:16 58° ESE 09:05:45 10° NNE
SL-16 R/B 4.1 09:03:21 13° NW 09:03:21 13° NW 09:04:22 10° NW
Cosmos 2278 Rocket 2.2 08:56:22 10° NNW 09:01:51 53° WSW 09:07:19 10° S
Tiangong 0.2 09:00:41 12° N 09:02:51 23° NE 09:05:27 10° E
Cosmos 1674 3.8 09:05:15 25° NNW 09:05:15 25° NNW 09:06:56 10° NNW
Ariane H10-3 2.9 09:06:44 18° SSE 09:06:44 18° SSE 09:07:43 10° SE
ARIANE 5 R/B 3.0 09:03:57 10° NNE 09:09:05 63° ESE 09:14:11 10° S
Cosmos 1420 Rocket 4.0 09:04:32 10° NNW 09:09:48 89° ENE 09:15:06 10° SSE
Ariane H10-3 4.0 09:11:31 14° S 09:11:31 14° S 09:12:58 10° SSE
Cosmos 1461 2.7 09:08:56 10° NNW 09:12:43 80° ENE 09:16:34 10° SSE
Cosmos 2056 Rocket 3.7 09:08:23 10° N 09:13:47 80° ENE 09:19:10 10° SSE
KORONAS-FOTON 4.2 09:14:54 37° W 09:14:59 37° W 09:18:24 10° NNW
ARGOS 3.4 09:12:07 10° NNE 09:17:27 71° ESE 09:22:45 10° S
Cosmos 1553 Rocket 4.4 09:14:14 10° NNW 09:19:51 38° W 09:25:24 10° SSW
USA 267 4.3 09:16:17 10° S 09:21:00 21° SW 09:22:10 20° WSW
Cosmos 1939 Rocket 3.3 09:20:29 10° N 09:23:56 35° WNW 09:25:56 21° SW
Cosmos 1766 3.0 09:21:09 10° NNW 09:24:46 63° W 09:28:25 10° S
Cosmos 1624 Rocket 3.9 09:20:53 10° NNW 09:26:02 76° WSW 09:31:12 10° S
Ariane H10 3.4 09:23:33 18° W 09:29:36 48° SSW 09:32:37 10° ESE
ARIANE 5 R/B 3.8 09:28:22 10° SSW 09:30:39 18° SSE 09:35:39 10° ESE
DELTA 4 R/B -0.3 09:33:52 30° NW 09:34:35 75° NNE 09:36:10 10° ESE
Aurora 2 Rocket 3.4 09:29:29 18° WSW 09:34:45 62° NNW 09:39:43 10° ENE
In-Cosmos 22 4.1 09:30:23 10° SSW 09:35:34 58° W 09:40:51 10° N
NOAA 12 4.1 09:32:47 10° NNE 09:38:01 88° WNW 09:43:14 10° SSW
SL-08 RB Rocket 3.7 09:33:47 10° NNE 09:38:22 89° E 09:42:56 10° SSW
Cosmos 1470 Rocket 4.3 09:35:22 10° NNW 09:39:17 31° W 09:43:13 10° SSW
Ariane H10+ 3.5 09:40:15 11° SW 09:41:24 12° SSW 09:42:34 10° S
YAOGAN 11 4.0 09:40:03 10° S 09:44:25 72° WSW 09:48:52 10° NNW
ISS -3.8 09:41:29 11° SW 09:44:42 69° NW 09:48:00 10° NNE
IUS-13 SRM-1 1.0 09:44:21 10° WNW 09:46:07 59° NNE 09:48:07 10° ESE
H-2A R/B 4.1 09:45:29 10° NW 09:47:30 15° WNW 09:49:18 11° WSW
COSMO-SKYMED 1 4.2 09:43:38 10° SSE 09:47:41 40° ENE 09:51:44 10° N
USA 306 2.7 09:44:43 10° SSW 09:48:36 77° ESE 09:52:19 10° NE
Cosmos 1908 4.0 09:46:16 10° N 09:49:47 53° E 09:53:18 10° SSE
GPS 2-15 Rocket1 4.0 09:45:59 10° W 09:50:31 41° NNW 09:55:07 10° ENE
SJ-6F 4.5 09:48:10 10° NNE 09:52:09 81° ESE 09:56:09 10° S
Cosmos 1862 Rocket 3.7 09:48:40 10° S 09:53:07 83° E 09:57:32 10° N
Meteor 1-23 Rocket 4.4 09:49:18 10° SSW 09:54:55 55° W 10:00:27 10° N
Nadezhda 2 Rocket 4.5 09:49:30 10° SSW 09:55:34 63° W 10:01:34 10° N
Cosmos 1400 Rocket 3.3 09:56:36 10° S 10:00:18 60° E 10:04:02 10° NNE
Cosmos 1943 Rocket 3.1 09:56:19 10° NW 10:00:52 25° WSW 10:05:24 10° SSW
Meteor 1-21 4.3 09:56:19 10° S 10:01:59 87° W 10:07:36 10° N
